Vertical_Velocity
-1 3 -0 2 -12 -6 -1 -6 -0 1 -1 5 -0 -2 -2 5 -0 -4 5 -1 1 0 -0 0 1 1 -0 -2 -1 -2 -1 -2 3 -1 -0 -1 -2 -1 -1 -1 -0 -1 0 1 0 -0 -1 -1 -2
0 1 2 -0 -8 -1 -5 -2 -0 -1 -3 2 0 0 -6 2 -0 3 -2 1 -0 -1 1 1 1 1 0 0 -1 -1 -1 -1 0 0 -1 0 -0 -1 -1 1 -0 1 -0 -0 1 1 1 1 2
2 2 0 -4 -1 -3 -4 -1 -1 3 4 0 -2 1 0 3 0 1 2 -1 -1 0 0 -1 1 0 0 2 0 1 0 0 0 0 -1 -0 -1 -1 -1 -1 -1 -1 0 1 1 1 1 -0 -1
-1 -3 0 -5 -1 -5 -3 -1 -0 2 4 1 0 -3 -1 2 1 -1 0 1 0 -0 -0 -1 -0 -1 -0 -1 -0 -1 -1 -0 -0 -0 -0 -1 -0 2 1 2 1 -0 -1 -2 -2 -2 -1 1 2
2 -0 -1 0 -2 -2 -0 -1 1 0 1 2 2 3 0 4 3 -1 0 0 0 -1 -3 -0 -2 -0 1 0 0 0 0 -0 -0 -0 -0 -0 -0 -0 -1 1 0 -0 0 -1 1 5 1 -0 0
-1 -0 -2 -0 -0 -0 -0 2 -2 0 2 2 -6 -1 2 3 4 0 1 1 -1 -0 -1 2 -1 0 0 -0 -0 -0 0 0 1 -0 -1 -1 -1 -1 -1 -1 -1 -0 1 -1 0 1 0 -0 -0
-5 -2 -3 -1 0 1 -2 2 -2 -1 1 1 0 -3 3 4 3 -1 -0 -0 -0 -1 -0 0 0 -1 2 0 -1 -1 -1 0 1 0 0 0 -0 0 -0 -0 -0 -1 -1 -0 1 -0 -0 2 2
0 -4 1 -1 -1 -2 0 1 2 -4 4 1 2 -2 -3 -3 1 1 -0 -1 0 -1 -1 -1 -1 -0 0 -0 0 -0 0 -2 -1 -2 -0 -2 -1 -1 -1 -2 -1 -1 1 -1 -0 -0 -2 -0 -1
3 -5 -0 -2 -1 -1 3 -1 2 3 -7 -1 -1 0 1 -3 0 0 -0 -1 -1 -1 0 -0 -0 -0 -0 1 0 -0 0 -1 -1 0 0 0 -0 0 1 0 0 -1 -2 -2 -1 -1 -1 -2 -1
-4 -2 -2 -1 -1 -1 1 -3 -2 -4 1 -1 1 1 2 0 -1 -1 -3 -1 -0 -0 -0 -0 0 0 -1 -1 -0 -1 -2 -1 0 -1 0 0 0 -1 1 1 1 -1 2 1 -0 0 0 0 -1
1 -3 -0 -0 1 -0 -1 -0 1 -4 1 -3 -10 -3 1 -0 1 -0 -2 -2 -1 -0 -0 -0 -1 -1 0 -1 -1 -1 -1 0 -0 -0 -1 -1 -0 1 -0 -2 -1 -2 -2 -1 -0 -1 1 0 -0
-5 0 0 -1 -1 1 0 0 0 1 1 -3 0 1 -2 -0 -1 -2 -1 -1 -0 1 0 -2 -1 -1 1 -1 1 -1 -1 1 0 0 0 -1 0 -1 -2 -1 -2 -1 -0 -0 -2 -2 -1 -0 -0
-2 -0 0 2 4 -0 2 0 -2 -0 2 1 1 1 -0 1 1 1 1 -1 0 0 -0 -0 -0 -0 2 -1 0 -1 -1 0 -0 -1 -1 0 -1 -2 -1 0 -0 -1 -0 -1 -2 -1 -1 -1 1
-0 1 1 -0 1 -1 -6 1 -2 2 4 2 1 1 1 -1 -2 -1 -2 -1 0 1 -1 -1 0 -2 1 -1 -1 -0 -3 -2 0 -1 0 -2 -1 -1 -0 -0 -1 -2 -0 -2 -2 -1 -1 -2 -2
-0 -4 -2 -2 -0 0 1 -4 -1 0 5 -0 1 1 0 -0 -1 -1 -1 -1 -0 -1 1 -2 1 -3 -1 -1 -2 -0 -2 -4 0 -1 -2 0 -1 0 -2 -2 -2 -1 -1 -1 -1 -1 -1 -1 1
-4 -6 -2 -3 -1 0 -4 -1 0 2 -2 1 1 1 1 -1 -2 -1 0 0 -0 -2 0 -1 -1 -1 -1 1 -1 -1 1 -1 1 -0 -0 -2 -1 0 -1 -0 -1 -1 -1 -2 -1 -1 -2 -1 -0
-3 -2 -1 -1 0 -1 -5 0 -0 3 2 -0 0 1 -0 1 0 -0 0 3 -3 -0 0 -1 -1 1 -1 -1 -0 -1 1 0 -0 -1 1 -3 1 -0 -1 -1 -1 -1 -1 -1 -1 -2 -2 -1 1
-1 -1 1 -1 -3 -1 0 1 1 -0 1 -2 0 -0 -1 -0 -4 0 1 -0 1 1 -1 -1 -1 -1 -1 -2 -0 0 -1 -1 -0 -2 0 0 0 -1 -1 -0 -1 -1 -1 -1 -1 -3 -2 -2 -1
-2 -2 -1 1 -1 -2 -1 0 -1 -1 3 1 -0 -1 -2 -4 4 4 0 1 -1 -2 0 -2 -2 -1 -1 -0 -2 -1 -0 -1 -2 2 0 -1 -1 -0 -1 -2 -1 -1 -2 -1 -2 -2 -1 1 3
-1 -1 1 1 0 -2 0 -2 -1 -0 -5 -6 -3 -2 -2 -0 2 2 -2 -0 -1 1 0 -1 1 -0 0 -0 -0 -0 -3 -1 1 1 -1 -0 -2 -0 -2 -0 1 -0 -1 -1 -2 -1 -1 -1 -0
0 -3 -0 -7 1 -1 -2 -5 1 -1 3 2 2 1 3 -1 -0 -2 -4 0 1 1 1 -0 -0 0 0 0 -1 -0 -1 0 0 0 -1 -1 -2 -1 -1 1 0 -0 -1 -0 -1 -1 -0 -1 -1
0 -1 -1 -1 -4 -5 -4 -8 -1 -0 -1 1 -0 -0 0 1 -2 1 -1 -2 -1 3 -1 -1 1 -1 1 -1 -0 0 -1 -1 -1 0 -1 -1 -1 -0 0 -0 0 0 1 -1 -1 -1 -2 0 1
-7 -2 -2 -1 -1 -5 -2 -8 -11 0 1 0 -1 -1 3 -0 0 -3 -2 -0 3 1 -0 0 -1 0 -1 -0 -0 -1 0 -0 -1 -1 -2 -2 -2 -0 -0 -1 -1 -0 -0 -1 -1 -1 0 0 0
-1 -4 -4 -2 -2 -6 -1 -7 -8 -1 -0 1 0 1 1 0 -2 -1 2 3 0 -0 -0 0 -0 0 0 0 0 -1 -1 -2 -2 -1 -0 -0 -1 -1 -2 -2 -2 -2 -3 -3 -3 -3 -2 -1 -2
-4 -5 -5 -9 -8 -8 -1 -2 -11 -1 0 -1 -1 1 1 2 0 -0 -0 -1 -1 -0 1 0 0 1 1 1 -0 -2 -0 0 1 0 -1 -2 -2 1 2 2 2 2 2 1 -0 0 1 0 -0
1 -5 -9 -6 -3 -5 -2 -4 -11 -0 1 0 1 1 0 -0 0 -0 -1 -2 -1 -1 -0 0 1 -1 0 -0 0 -2 -1 -1 -2 -1 3 3 0 -3 -3 -2 -2 -2 -1 0 0 -0 -1 -1 -1
-1 -3 -4 -5 -1 -5 -4 -3 -7 1 1 1 0 -0 -1 -1 -1 -0 0 1 2 2 2 1 0 0 0 -0 -1 -0 -0 -1 -0 -0 -2 -0 0 1 -1 -1 -1 -1 -1 -0 0 0 1 0 0
-3 -4 -9 -5 -5 -0 -4 -1 -7 1 0 1 0 -1 -1 -1 0 1 1 -0 -0 1 0 -1 1 -1 0 1 -2 0 0 -0 0 -0 -2 -3 -1 0 1 2 1 1 2 3 3 4 4 2 1
-4 -1 -2 -7 -4 -5 -2 -9 -4 -3 -2 -2 -1 -0 0 1 1 1 0 1 0 -1 -1 -1 -2 0 1 0 0 -0 0 1 0 -0 4 5 4 3 1 3 3 2 2 2 -0 -1 -2 -2 -0
-0 -0 -2 -6 -3 -0 -3 -10 -0 -1 -2 -1 -1 1 1 1 1 1 1 -0 -0 -0 -0 1 1 -3 0 0 2 3 2 2 -0 -0 2 3 -0 1 -2 -1 -2 -0 1 3 -0 1 1 -1 1
Height
1523 1525 1527 1529 1540 1543 1545 1531 1517 1520 1525 1524 1523 1523 1528 1539 1544 1554 1553 1556 1557 1558 1559 1559 1559 1559 1559 1559 1559 1559 1559 1559 1559 1558 1558 1558 1557 1556 1556 1555 1554 1553 1553 1552 1551 1550 1550 1549 1549
1522 1525 1527 1527 1544 1550 1543 1521 1519 1518 1521 1523 1524 1527 1532 1546 1546 1548 1552 1555 1557 1558 1559 1559 1560 1560 1560 1559 1559 1559 1559 1558 1558 1557 1557 1557 1556 1556 1555 1554 1553 1553 1552 1551 1551 1550 1549 1548 1548
1522 1524 1526 1529 1539 1541 1534 1517 1518 1520 1520 1521 1527 1531 1538 1546 1547 1548 1552 1555 1557 1558 1559 1559 1560 1560 1560 1559 1559 1558 1558 1558 1558 1557 1556 1555 1555 1554 1554 1553 1552 1552 1551 1550 1550 1549 1548 1547 1547
1521 1525 1527 1532 1533 1521 1516 1514 1515 1517 1521 1521 1525 1534 1542 1546 1548 1549 1552 1555 1557 1558 1558 1559 1559 1559 1559 1559 1558 1558 1558 1557 1557 1556 1555 1554 1554 1553 1552 1552 1551 1550 1549 1549 1548 1548 1547 1546 1545
1519 1521 1531 1532 1525 1515 1511 1510 1512 1515 1519 1523 1525 1539 1544 1547 1549 1550 1553 1554 1556 1557 1558 1558 1559 1558 1558 1558 1557 1557 1556 1556 1555 1555 1554 1553 1552 1551 1551 1550 1549 1549 1548 1547 1547 1546 1545 1545 1544
1517 1519 1534 1535 1519 1514 1512 1512 1511 1515 1520 1524 1527 1534 1547 1550 1550 1551 1553 1555 1555 1557 1557 1558 1558 1558 1557 1556 1556 1555 1555 1554 1553 1552 1552 1551 1550 1549 1548 1547 1547 1546 1546 1545 1544 1544 1543 1542 1541
1513 1520 1527 1523 1519 1516 1513 1513 1511 1516 1521 1525 1527 1537 1546 1549 1551 1552 1553 1554 1555 1556 1557 1557 1557 1557 1556 1555 1554 1553 1552 1551 1550 1549 1549 1548 1547 1546 1545 1545 1544 1543 1543 1542 1541 1541 1540 1540 1539
1512 1515 1519 1519 1519 1515 1511 1512 1516 1516 1525 1527 1528 1535 1543 1543 1548 1551 1552 1553 1554 1555 1556 1556 1556 1555 1555 1553 1552 1552 1551 1549 1548 1547 1546 1545 1544 1543 1543 1542 1541 1540 1540 1539 1538 1537 1537 1536 1536
1510 1519 1522 1515 1514 1510 1511 1513 1517 1519 1523 1526 1529 1530 1533 1540 1545 1548 1551 1552 1554 1555 1555 1555 1554 1554 1553 1552 1551 1550 1549 1547 1546 1545 1545 1543 1542 1541 1540 1539 1538 1537 1537 1536 1535 1534 1534 1533 1533
1507 1517 1511 1507 1506 1506 1510 1511 1516 1520 1524 1529 1529 1531 1534 1540 1544 1547 1550 1552 1553 1554 1554 1554 1553 1553 1552 1551 1550 1548 1547 1546 1545 1544 1543 1542 1540 1539 1539 1538 1536 1536 1535 1534 1533 1532 1531 1530 1530
1506 1510 1506 1506 1505 1505 1507 1513 1516 1519 1526 1525 1527 1531 1536 1540 1544 1546 1548 1551 1553 1553 1553 1554 1553 1553 1552 1550 1549 1547 1546 1544 1543 1541 1540 1539 1538 1537 1536 1535 1534 1533 1533 1531 1531 1530 1529 1528 1528
1507 1506 1504 1505 1504 1506 1507 1511 1516 1519 1522 1525 1529 1531 1535 1540 1543 1545 1547 1549 1551 1552 1552 1553 1553 1552 1551 1549 1547 1546 1544 1542 1541 1538 1537 1536 1535 1535 1534 1533 1532 1532 1530 1529 1528 1528 1527 1526 1525
1506 1505 1505 1505 1504 1506 1509 1513 1516 1521 1522 1526 1530 1534 1537 1540 1543 1546 1547 1549 1550 1551 1551 1552 1551 1551 1550 1549 1546 1545 1543 1540 1538 1536 1535 1533 1532 1532 1532 1531 1530 1529 1528 1527 1526 1525 1524 1523 1522
1504 1506 1506 1506 1507 1510 1512 1517 1516 1525 1524 1527 1531 1535 1538 1540 1542 1544 1546 1548 1550 1550 1550 1551 1550 1549 1549 1547 1545 1543 1542 1540 1538 1536 1534 1533 1532 1531 1530 1530 1529 1528 1527 1526 1524 1523 1521 1521 1520
1504 1510 1509 1511 1512 1515 1516 1522 1525 1526 1528 1529 1533 1536 1539 1541 1542 1544 1546 1547 1548 1549 1548 1549 1548 1547 1547 1545 1543 1541 1540 1538 1536 1535 1534 1533 1531 1530 1529 1529 1528 1527 1526 1525 1523 1522 1520 1519 1518
1508 1513 1521 1517 1515 1517 1518 1529 1527 1527 1529 1531 1534 1537 1539 1540 1542 1543 1544 1546 1547 1547 1547 1547 1546 1545 1545 1543 1541 1539 1538 1537 1535 1533 1532 1531 1531 1530 1529 1529 1527 1526 1525 1524 1522 1521 1519 1518 1516
1514 1528 1524 1522 1518 1517 1519 1526 1525 1527 1530 1532 1534 1536 1537 1540 1541 1542 1543 1544 1545 1545 1546 1546 1545 1544 1543 1542 1540 1538 1537 1535 1534 1533 1532 1531 1530 1529 1529 1528 1527 1526 1524 1523 1521 1519 1518 1517 1515
1519 1522 1523 1526 1521 1519 1521 1524 1525 1526 1529 1530 1532 1534 1535 1536 1537 1540 1542 1543 1544 1544 1544 1544 1544 1543 1542 1541 1539 1537 1536 1534 1533 1532 1531 1530 1530 1528 1528 1527 1526 1525 1524 1522 1521 1519 1518 1516 1514
1506 1512 1519 1522 1521 1521 1524 1524 1525 1525 1528 1529 1529 1531 1532 1533 1536 1538 1540 1542 1542 1542 1543 1543 1542 1541 1540 1539 1537 1535 1534 1533 1531 1530 1530 1529 1529 1528 1527 1527 1526 1524 1523 1522 1521 1519 1518 1516 1515
1508 1516 1522 1522 1522 1523 1525 1525 1523 1524 1523 1523 1524 1527 1528 1531 1533 1535 1537 1538 1539 1541 1540 1540 1540 1539 1538 1537 1535 1533 1532 1531 1530 1529 1529 1528 1528 1528 1527 1526 1525 1523 1523 1521 1520 1518 1517 1515 1514
1508 1513 1520 1523 1524 1523 1525 1529 1522 1519 1520 1520 1522 1524 1526 1527 1529 1532 1534 1535 1537 1538 1538 1538 1538 1537 1536 1535 1533 1531 1531 1530 1530 1529 1528 1528 1528 1527 1526 1525 1524 1522 1521 1520 1519 1518 1516 1515 1513
1509 1507 1512 1518 1528 1544 1526 1549 1521 1517 1517 1517 1518 1521 1523 1524 1526 1528 1530 1532 1534 1535 1536 1536 1535 1534 1534 1532 1531 1529 1529 1529 1528 1528 1528 1527 1527 1526 1525 1524 1522 1521 1520 1518 1517 1516 1515 1514 1512
1507 1506 1513 1517 1526 1533 1530 1549 1521 1515 1513 1513 1515 1518 1521 1523 1524 1525 1527 1530 1532 1533 1533 1533 1532 1532 1531 1530 1529 1528 1528 1527 1527 1527 1527 1526 1526 1525 1524 1522 1521 1520 1518 1517 1516 1514 1513 1512 1511
1502 1510 1520 1527 1532 1552 1531 1540 1529 1519 1514 1515 1516 1517 1520 1521 1523 1525 1526 1528 1529 1530 1530 1530 1529 1529 1528 1527 1526 1526 1526 1526 1525 1525 1525 1525 1524 1523 1522 1521 1519 1518 1517 1516 1514 1513 1511 1510 1508
1506 1521 1566 1558 1565 1553 1540 1539 1526 1516 1515 1515 1516 1518 1519 1521 1523 1524 1525 1525 1527 1527 1527 1527 1526 1526 1525 1524 1524 1523 1523 1523 1523 1523 1523 1522 1521 1520 1519 1518 1517 1516 1514 1513 1512 1511 1509 1508 1506
1511 1518 1544 1547 1558 1550 1539 1538 1522 1516 1515 1515 1517 1519 1520 1521 1523 1524 1524 1525 1525 1525 1524 1524 1523 1523 1523 1522 1521 1520 1520 1520 1520 1520 1520 1519 1518 1518 1517 1516 1515 1513 1512 1511 1509 1508 1506 1505 1503
1510 1522 1517 1533 1542 1547 1547 1527 1520 1516 1517 1517 1518 1520 1521 1522 1523 1523 1524 1523 1523 1522 1522 1521 1520 1520 1519 1518 1517 1517 1516 1516 1516 1516 1516 1515 1514 1514 1513 1512 1511 1510 1509 1507 1506 1505 1503 1502 1500
1507 1512 1524 1535 1538 1529 1546 1525 1532 1518 1518 1518 1518 1520 1521 1522 1522 1522 1522 1521 1520 1518 1518 1518 1517 1517 1516 1514 1514 1513 1512 1512 1512 1511 1511 1510 1509 1508 1508 1507 1507 1506 1505 1504 1503 1502 1500 1498 1497
1515 1515 1517 1523 1531 1536 1536 1527 1515 1515 1516 1517 1518 1519 1520 1521 1521 1521 1520 1519 1517 1515 1514 1514 1513 1513 1513 1512 1511 1510 1508 1507 1507 1506 1506 1505 1505 1505 1504 1503 1503 1502 1502 1501 1499 1498 1497 1495 1493
1512 1510 1514 1526 1521 1530 1531 1524 1509 1510 1512 1514 1516 1518 1519 1520 1520 1519 1518 1516 1515 1513 1511 1510 1509 1509 1510 1509 1508 1506 1505 1504 1503 1502 1502 1501 1500 1500 1499 1498 1497 1496 1496 1495 1494 1493 1491 1490 1489